Weather observations for the past three days for
Creston Municipal Airport
Metric (Imperial)
Date Time (cdt) Wind (kph) Vis. (km) Weather Sky Cond. Temperature (ºC) Relative Humidity Wind Chill (°C) Heat Index (°C) Pressure Precipitation (cm)
Air Dwpt 6 hour altimeter (cm) sea level (mb) 1 hr 3 hr 6 hr
Max. Min.
03 21:35 W 6 16.09 Fair CLR 19 1 30% 75.64 0.0
03 21:15 NW 7 16.09 Fair CLR 19 1 30% 75.64 0.0
03 20:55 NW 6 16.09 Fair CLR 18 2 34% 75.64 0.0
03 20:35 Calm 16.09 Fair CLR 19 2 32% 75.62 0.0
03 20:15 W 6 16.09 Fair CLR 19 2 32% 75.62 0.0
03 19:55 W 6 16.09 Fair CLR 20 2 30% 75.64 0.0
03 19:35 W 9 16.09 Fair CLR 20 3 33% 75.64 0.0
03 19:15 W 9 16.09 Fair CLR 20 3 33% 75.67 0.0
03 18:55 W 19 16.09 Fair CLR 21 2 29% 75.67 0.0
03 18:35 NW 15 16.09 Fair CLR 22 2 27% 75.67 0.0
03 18:15 NW 19 G 30 16.09 Fair CLR 22 1 25% 75.67 0.0
03 17:55 NW 19 G 28 16.09 Fair CLR 22 2 27% 75.67 0.0
03 17:35 NW 22 16.09 Fair CLR 22 2 27% 75.67 0.0
03 17:15 Calm 16.09 Fair CLR 22 2 27% 75.69 0.0
03 16:55 W 20 16.09 Fair CLR 22 2 27% 75.69 0.0
03 16:35 NW 17 G 33 16.09 Fair CLR 22 2 27% 75.69 0.0
03 16:15 NW 24 G 41 16.09 Fair CLR 22 2 27% 75.72 0.0
03 15:55 NW 28 G 37 16.09 Fair CLR 22 2 27% 75.72 0.0
03 15:35 Calm 16.09 Fair CLR 22 3 29% 75.74 0.0
03 15:15 W 26 G 41 16.09 Fair CLR 22 2 27% 75.74 0.0
03 14:55 NW 22 G 35 16.09 Fair CLR 22 3 29% 75.74 0.0
03 14:35 NW 26 G 39 16.09 Fair CLR 22 3 29% 75.74 0.0
03 14:15 W 26 G 35 16.09 Fair CLR 22 4 31% 75.77 0.0
03 13:55 NW 24 G 39 16.09 Fair CLR 22 3 29% 75.77 0.0
03 13:35 NW 31 16.09 Fair CLR 22 3 29% 75.77 0.0
03 13:15 NW 22 G 43 16.09 Fair CLR 21 4 33% 75.79 0.0
03 12:55 W 28 16.09 Fair CLR 21 6 38% 75.82 0.0
03 12:35 W 26 16.09 Fair CLR 20 5 38% 75.82 0.0
03 12:15 W 19 G 35 16.09 Fair CLR 20 6 40% 75.82 0.0
03 11:55 W 24 G 39 16.09 Fair CLR 19 5 40% 75.84 0.0
03 11:35 W 24 G 33 16.09 Fair CLR 19 5 40% 75.82 0.0
03 11:15 Calm 16.09 Fair CLR 18 5 43% 75.82 0.0
03 10:55 W 24 G 35 16.09 Fair CLR 17 5 45% 75.84 0.0
03 10:35 W 28 16.09 Fair CLR 16 5 48% 75.82 0.0
03 10:15 W 31 G 43 16.09 Fair CLR 16 5 48% 75.82 0.0
03 09:55 W 28 G 46 16.09 Fair CLR 15 4 48% 75.79 0.0
03 09:35 W 22 G 37 16.09 Fair CLR 14 4 51% 75.82 0.0
03 09:15 SW 22 G 35 16.09 Fair CLR 13 3 51% 75.82 0.0
03 08:55 SW 26 16.09 Fair CLR 12 3 54% 75.82 0.0
03 08:35 SW 26 16.09 Fair CLR 12 2 51% 75.82 0.0
03 08:15 SW 24 G 33 16.09 Fair CLR 11 2 54% 75.84 0.0
03 07:55 SW 22 G 35 16.09 Fair CLR 11 2 54% 75.87 0.0
03 07:35 SW 24 16.09 Fair CLR 11 2 54% 75.87 0.0
03 07:15 SW 20 16.09 Fair CLR 10 2 58% 8 75.87 0.0
03 06:55 SW 19 16.09 Fair CLR 9 2 62% 7 75.82 0.0
03 06:35 SW 24 16.09 Fair CLR 9 1 58% 6 75.79 0.0
03 06:15 SW 20 16.09 Fair CLR 9 1 58% 6 75.79 0.0
03 05:35 S 30 16.09 A Few Clouds FEW120 10 1 54% 7 75.79 0.0
03 05:15 S 26 16.09 A Few Clouds FEW120 10 1 54% 7 75.84 0.0
03 04:55 S 26 16.09 Fair CLR 10 1 54% 7 75.87 0.0
03 04:35 S 22 G 31 16.09 A Few Clouds FEW120 9 1 58% 6 75.9 0.0
03 04:15 SW 26 G 37 16.09 A Few Clouds FEW120 10 1 54% 7 75.9 0.0
03 03:55 S 26 G 35 16.09 A Few Clouds FEW120 10 1 54% 7 75.92 0.0
03 03:35 S 26 16.09 Fair CLR 9 0 54% 6 75.92 0.0
03 03:15 S 26 16.09 Fair CLR 9 0 54% 6 75.92 0.0
03 02:55 S 26 16.09 Fair CLR 9 0 54% 6 75.92 0.0
03 02:35 S 24 16.09 Fair CLR 9 0 54% 6 75.95 0.0
03 02:15 S 22 16.09 Fair CLR 9 0 54% 6 75.97 0.0
03 01:55 S 19 16.09 Fair CLR 8 0 57% 5 76.02 0.0
03 01:35 S 17 16.09 Fair CLR 8 0 57% 6 76.05 0.0
03 01:15 S 20 16.09 Fair CLR 9 0 54% 6 76.05 0.0
03 00:55 S 20 16.09 Fair CLR 8 0 57% 5 76.05 0.0
03 00:35 S 22 16.09 Fair CLR 9 0 54% 6 76.07 0.0
03 00:15 S 20 16.09 Fair CLR 9 0 54% 6 76.07 0.0
02 23:55 S 22 16.09 Fair CLR 9 0 54% 6 76.1 0.0
02 23:35 S 22 16.09 Fair CLR 9 0 54% 6 76.1 0.0
02 23:15 S 22 16.09 Fair CLR 9 0 54% 6 76.12 0.0
02 22:55 S 20 16.09 Fair CLR 9 0 54% 6 76.15 0.0
02 22:35 S 13 16.09 Fair CLR 9 0 54% 7 76.15 0.0
02 22:15 S 15 16.09 Fair CLR 9 0 54% 7 76.17 0.0
02 21:55 S 19 16.09 Fair CLR 10 -1 47% 8 76.17 0.0
02 21:35 S 20 16.09 Fair CLR 10 -1 47% 8 76.2 0.0
02 21:15 S 15 16.09 Fair CLR 11 -1 44% 76.2 0.0
02 20:55 S 15 16.09 Fair CLR 11 -1 44% 76.23 0.0
02 20:35 S 15 14.48 Fair CLR 12 -1 41% 76.23 0.0
02 20:15 SW 13 16.09 Fair CLR 12 -1 41% 76.23 0.0
02 19:55 SW 11 16.09 Fair CLR 14 -1 36% 76.2 0.0
02 19:35 SW 9 16.09 Fair CLR 15 -2 31% 76.23 0.0
02 19:15 SW 13 16.09 Fair CLR 16 -2 29% 76.23 0.0
02 18:55 W 19 16.09 Fair CLR 16 -2 29% 76.25 0.0
02 18:35 W 15 G 24 16.09 Fair CLR 16 -2 29% 76.28 0.0
02 18:15 W 15 G 26 16.09 Fair CLR 16 -3 27% 76.28 0.0
02 17:55 W 17 16.09 Fair CLR 17 -2 27% 76.28 0.0
02 17:35 W 15 G 30 16.09 Fair CLR 16 -3 27% 76.3 0.0
02 17:15 Vrbl 9 G 30 16.09 Fair CLR 16 -3 27% 76.3 0.0
02 16:55 W 13 G 33 16.09 Fair CLR 16 -3 27% 76.33 0.0
02 16:35 W 15 G 28 14.48 Fair CLR 16 -3 27% 76.33 0.0
02 16:15 W 13 G 26 16.09 Fair CLR 16 -2 29% 76.35 0.0
02 15:55 W 17 G 28 16.09 Fair CLR 16 -2 29% 76.38 0.0
02 15:35 Calm 16.09 Fair CLR 16 -1 31% 76.4 0.0
02 15:15 W 13 16.09 Fair CLR 16 -1 31% 76.43 0.0
02 14:55 NW 9 G 22 16.09 Fair CLR 15 -1 34% 76.45 0.0
02 14:35 Vrbl 11 G 22 16.09 Fair CLR 15 -2 31% 76.45 0.0
02 14:15 W 15 G 24 16.09 Fair CLR 15 -2 31% 76.45 0.0
02 13:55 Vrbl 6 G 24 16.09 Fair CLR 14 -3 31% 76.5 0.0
02 13:35 W 19 16.09 Fair CLR 14 -2 33% 76.5 0.0
02 13:15 W 11 G 28 16.09 Fair CLR 14 -3 31% 76.53 0.0
02 12:55 Vrbl 7 G 19 16.09 Fair CLR 14 -2 33% 76.53 0.0
02 12:35 W 19 16.09 Fair CLR 14 -2 33% 76.56 0.0
02 12:15 Vrbl 6 16.09 Fair CLR 13 -2 36% 76.56 0.0
02 11:55 N 9 G 24 16.09 Fair CLR 12 -3 35% 76.58 0.0
02 11:35 N 20 G 31 16.09 Fair CLR 13 -2 36% 76.58 0.0
02 11:15 NW 15 16.09 Fair CLR 12 -3 35% 76.61 0.0
02 10:55 NW 13 G 30 16.09 Fair CLR 12 -2 38% 76.61 0.0
02 10:35 NW 15 16.09 Fair CLR 11 -2 41% 76.61 0.0
02 10:15 NW 15 G 26 16.09 Fair CLR 11 -3 38% 76.61 0.0
02 09:55 Calm 16.09 Fair CLR 11 -3 38% 76.58 0.0
02 09:35 NW 13 16.09 Fair CLR 11 -2 41% 76.61 0.0
02 09:15 NW 9 16.09 Fair CLR 10 -3 40% 9 76.61 0.0
02 08:55 Calm 16.09 Fair CLR 9 -2 46% 76.61 0.0
02 08:35 N 7 16.09 Fair CLR 8 -2 50% 7 76.61 0.0
02 08:15 Calm 16.09 Fair CLR 7 -1 57% 76.61 0.0
02 07:55 Calm 0.00 Fair CLR 6 0 66% 76.58 0.0
02 07:35 NW 9 16.09 Fair CLR 4 0 75% 2 76.58 0.0
02 07:15 NW 11 16.09 Fair CLR 3 -1 75% 0 76.58 0.0
02 06:55 NW 7 16.09 Fair CLR 1 -1 87% -1 76.56 0.0
02 06:35 NW 9 16.09 Fair CLR 2 -2 75% -0 76.53 0.0
02 06:15 NW 11 16.09 Fair CLR 2 -2 75% -1 76.53 0.0
02 05:55 N 11 16.09 Fair CLR 2 -2 75% -1 76.53 0.0
02 05:35 NW 11 16.09 Fair CLR 2 -2 75% -1 76.5 0.0
02 05:15 NW 11 16.09 Fair CLR 2 -2 75% -1 76.5 0.0
02 04:55 N 11 16.09 Fair CLR 2 -2 75% -1 76.5 0.0
02 04:35 N 11 16.09 Fair CLR 3 -1 75% 0 76.5 0.0
02 04:15 N 11 16.09 Fair CLR 3 -1 75% 0 76.5 0.0
02 03:55 N 13 16.09 Fair CLR 3 -2 70% 0 76.5 0.0
02 03:35 N 13 16.09 Fair CLR 4 -1 70% 1 76.48 0.0
02 03:15 NW 9 16.09 Fair CLR 3 -1 75% 1 76.48 0.0
02 02:55 NW 13 16.09 Fair CLR 3 -1 75% 0 76.48 0.0
02 02:15 NW 11 16.09 Fair CLR 4 -1 70% 2 76.5 0.0
02 01:55 NW 11 16.09 Fair CLR 4 0 75% 2 76.5 0.0
02 01:35 NW 9 16.09 Fair CLR 4 0 75% 2 76.5 0.0
02 01:15 NW 9 16.09 Fair CLR 5 0 70% 3 76.5 0.0
02 00:55 NW 9 16.09 Fair CLR 5 0 70% 3 76.5 0.0
02 00:35 N 7 16.09 Fair CLR 6 -1 61% 5 76.5 0.0
02 00:15 N 7 16.09 Fair CLR 6 -1 61% 5 76.48 0.0
01 23:55 N 9 16.09 Fair CLR 7 -1 57% 5 76.48 0.0
01 23:35 N 11 16.09 Fair CLR 7 -1 57% 5 76.48 0.0
01 23:15 N 9 16.09 Fair CLR 7 -1 57% 5 76.48 0.0
01 22:55 N 11 16.09 Fair CLR 7 -1 57% 5 76.48 0.0
01 22:35 N 11 16.09 Fair CLR 8 -1 53% 6 76.45 0.0
01 22:15 N 13 16.09 A Few Clouds FEW075 7 -1 57% 5 76.45 0.0
01 21:55 N 11 16.09 Partly Cloudy SCT075 8 -1 53% 6 76.43 0.0
01 21:35 N 13 16.09 Partly Cloudy SCT080 8 -1 53% 6 76.43 0.0
01 21:15 N 11 16.09 A Few Clouds FEW080 9 -1 50% 8 76.4 0.0
01 20:55 N 13 16.09 Mostly Cloudy BKN080 9 -1 50% 7 76.38 0.0
01 20:35 N 11 16.09 Mostly Cloudy BKN080 10 0 50% 9 76.35 0.0
01 20:15 N 13 16.09 Partly Cloudy SCT085 10 0 50% 8 76.33 0.0
01 19:55 N 15 G 26 16.09 A Few Clouds FEW080 FEW085 11 0 47% 76.33 0.0
01 19:35 N 22 16.09 Mostly Cloudy BKN075 BKN090 12 -1 41% 76.3 0.0
01 19:15 N 15 G 26 16.09 Mostly Cloudy SCT080 BKN090 12 -1 41% 76.3 0.0
01 18:55 N 19 16.09 Mostly Cloudy FEW065 SCT080 BKN090 12 0 44% 76.28 0.0
01 18:35 N 20 G 31 16.09 Mostly Cloudy BKN065 BKN080 13 -1 38% 76.28 0.0
01 18:15 N 19 G 28 16.09 Mostly Cloudy FEW065 BKN080 13 -1 38% 76.25 0.0
01 17:55 N 19 16.09 Overcast FEW065 SCT075 OVC085 13 -1 38% 76.25 0.0
01 17:35 N 20 16.09 Mostly Cloudy FEW060 SCT075 BKN090 13 0 41% 76.25 0.0
01 17:15 N 24 16.09 Mostly Cloudy FEW070 BKN090 14 0 39% 76.25 0.0
01 16:55 NW 20 16.09 Partly Cloudy SCT085 14 0 39% 76.25 0.0
01 16:35 NW 22 16.09 A Few Clouds FEW060 FEW075 FEW085 14 0 39% 76.25 0.0
01 16:15 N 22 G 35 16.09 Partly Cloudy FEW060 SCT085 13 0 41% 76.25 0.0
01 15:55 N 15 G 33 16.09 A Few Clouds FEW075 FEW085 14 1 41% 76.28 0.0
01 15:35 NW 19 G 33 16.09 Partly Cloudy FEW070 SCT085 14 1 41% 76.28 0.0
01 15:15 NW 24 16.09 Mostly Cloudy SCT070 BKN085 13 -1 38% 76.28 0.0
01 14:55 NW 26 16.09 Mostly Cloudy SCT075 BKN085 13 -1 38% 76.3 0.0
01 14:35 NW 26 16.09 Partly Cloudy SCT060 SCT070 SCT090 14 0 39% 76.28 0.0
01 14:15 N 28 16.09 Mostly Cloudy SCT060 BKN085 14 0 39% 76.28 0.0
01 13:55 N 17 G 31 16.09 Mostly Cloudy SCT060 SCT070 BKN085 14 0 39% 76.28 0.0
01 13:35 N 22 G 35 16.09 Mostly Cloudy SCT060 SCT070 BKN085 13 -1 38% 76.28 0.0
01 13:15 NW 22 G 31 16.09 Partly Cloudy SCT060 SCT075 14 0 39% 76.28 0.0
01 12:55 N 24 16.09 A Few Clouds FEW060 14 0 39% 76.28 0.0
01 12:30 NW 24 G 41 16.09 A Few Clouds FEW060 14 -1 36% 76.3 0.0
01 12:15 N 26 16.09 A Few Clouds FEW060 13 -1 38% 76.3 0.0
01 11:55 NW 22 G 37 16.09 Fair CLR 13 0 41% 76.28 0.0
01 11:35 NW 22 G 37 16.09 Fair CLR 13 -1 38% 76.28 0.0
01 11:15 NW 24 G 35 16.09 Fair CLR 13 0 41% 76.28 0.0
01 10:55 W 24 G 35 16.09 Fair CLR 12 2 51% 76.28 0.0
01 10:35 NW 28 16.09 Fair CLR 12 2 51% 76.28 0.0
01 10:15 NW 20 16.09 Fair CLR 11 2 54% 76.28 0.0
01 09:55 NW 24 16.09 Fair CLR 11 2 54% 76.28 0.0
01 09:35 W 15 16.09 Fair CLR 10 2 58% 8 76.28 0.0
01 09:15 W 15 16.09 Fair CLR 10 1 54% 8 76.28 0.0
01 08:55 W 19 16.09 Fair CLR 9 1 58% 7 76.3 0.0
01 08:35 W 20 16.09 Fair CLR 8 1 62% 5 76.3 0.0
01 08:15 W 15 16.09 Fair CLR 7 1 66% 5 76.3 0.0
01 07:55 W 11 16.09 A Few Clouds FEW075 5 1 76% 3 76.33 0.0
01 07:35 W 11 16.09 A Few Clouds FEW075 4 1 81% 2 76.33 0.0
01 07:15 W 9 0.00 Fair CLR 3 0 81% 1 76.33 0.0
01 06:55 W 7 16.09 Fair CLR 3 -1 75% 1 76.3 0.0
01 06:35 W 7 16.09 Fair CLR 3 -1 75% 1 76.3 0.0
01 06:15 W 7 16.09 A Few Clouds FEW075 3 -1 75% 1 76.3 0.0
01 05:55 W 7 16.09 Mostly Cloudy BKN075 3 0 81% 1 76.3 0.0
01 05:35 SW 7 16.09 Overcast OVC080 3 -1 75% 1 76.3 0.0
01 05:15 Calm 16.09 Mostly Cloudy BKN080 3 0 81% 76.3 0.0
01 04:55 SW 7 16.09 Fair CLR 3 0 81% 1 76.3 0.0
01 04:35 SW 9 16.09 Partly Cloudy SCT070 SCT090 4 0 75% 2 76.33 0.0
01 04:15 W 6 16.09 Overcast BKN070 OVC090 4 0 75% 76.33 0.0
01 03:55 W 7 16.09 Overcast OVC070 3 0 81% 1 76.33 0.0
01 03:35 SW 7 16.09 Overcast OVC070 3 0 81% 1 76.33 0.0
01 03:15 SW 9 16.09 Overcast OVC075 3 0 81% 1 76.33 0.0
01 02:55 SW 7 16.09 Overcast FEW060 BKN075 OVC090 3 -1 75% 1 76.33 0.0
01 02:35 SW 9 16.09 Mostly Cloudy SCT065 BKN090 3 -1 75% 1 76.35 0.0
01 02:15 SW 9 16.09 Fair CLR 3 -1 75% 1 76.38 0.0
01 01:55 SW 9 16.09 Fair CLR 3 -1 75% 1 76.38 0.0
01 01:35 SW 9 16.09 Fair CLR 3 -1 75% 1 76.4 0.0
01 01:15 SW 9 16.09 Fair CLR 3 -1 75% 1 76.4 0.0
01 00:55 SW 9 16.09 Fair CLR 4 -1 70% 2 76.43 0.0
01 00:35 W 9 16.09 Fair CLR 4 -1 70% 2 76.4 0.0
30 23:55 W 7 16.09 Fair CLR 5 -1 66% 4 76.4 0.0
30 23:35 W 6 16.09 Fair CLR 6 -1 61% 76.4 0.0
30 23:15 NW 6 16.09 Fair CLR 6 -1 61% 76.4 0.0
30 22:55 NW 7 16.09 Fair CLR 6 -1 61% 5 76.43 0.0
30 22:35 NW 6 16.09 Fair CLR 7 -1 57% 76.4 0.0
30 22:15 Calm 16.09 Fair CLR 8 -2 50% 76.4 0.0
30 21:55 N 6 16.09 Fair CLR 7 -2 53% 76.4 0.0
Date Time (cdt) Wind (kph) Vis. (km) Weather Sky Cond. Air Dwpt Max. Min. Relative Humidity Wind Chill (°C) Heat Index (°C) altimeter (cm) sea level (mb) 1 hr 3 hr 6 hr
6 hour
Temperature (ºC) Pressure Precipitation (cm)